User: anonymous   Login
Location: Bartlow
(52.0833°N, 0.3167°E)
Time: 23:55:36
(UTC+00:00)
Language:

Cosmos 1842 Rocket - Orbit

View from above orbital plane
View from above orbital plane
View from above satellite
View from above satellite

Ground track
Ground track

The orbit data is extracted from the following two-line orbital elements,

1 17912U 87038B   24055.55132565  .00000696  00000-0  80506-4 0  9998
2 17912  82.4995 277.0347 0021236 101.0211 259.3394 14.83980994968811
Epoch (UTC): 24 February 2024 13:13:54
Eccentricity: 0.0021236
inclination: 82.4995°
perigee height: 602 km
apogee height: 631 km
right ascension of ascending node: 277.0347°
argument of perigee: 101.0211°
revolutions per day: 14.83980994
mean anomaly at epoch: 259.3394°
orbit number at epoch: 96881

The dashed part of the orbit path shows where the satellite is in the earth's shadow,  

DLR